GW3217 Weather Reports


Display with metric or nautical units.
time (UTC)temp
F
wind
direction
speed
MPH
gust
MPH
rain 1hr
in
rain 24hr
in
rain mn
in
humidity
%
barometer
mb
20260505011347 55 118 0.0 0.0 0.00 0.00 0.00 69 1012.7
20260505010844 55 121 0.0 1.0 0.00 0.00 0.00 68 1012.5
20260505010339 55 120 0.0 1.0 0.00 0.00 0.00 67 1012.5
20260505005836 56 138 1.0 1.0 0.00 0.00 0.00 66 1012.5
20260505005333 56 109 0.0 0.0 0.00 0.00 0.00 66 1012.4
20260505004830 56 130 1.0 1.0 0.00 0.00 0.00 65 1012.4
20260505004326 56 123 1.0 2.0 0.00 0.00 0.00 64 1012.4
20260505003824 57 139 1.0 1.0 0.00 0.00 0.00 63 1012.5
20260505003321 57 128 1.0 1.0 0.00 0.00 0.00 63 1012.2
20260505002817 57 138 0.0 1.0 0.00 0.00 0.00 62 1012.0
20260505002314 58 116 2.0 2.0 0.00 0.00 0.00 61 1011.9
20260505001812 58 116 1.0 1.0 0.00 0.00 0.00 60 1011.8
20260505001309 59 166 1.0 2.0 0.00 0.00 0.00 60 1011.8
20260505000806 59 125 2.0 2.0 0.00 0.00 0.00 59 1011.9
20260505000304 59 126 1.0 1.0 0.00 0.00 0.00 59 1011.6
20260504235800 59 135 1.0 1.0 0.00 0.00 0.00 58 1011.8
20260504235257 60 131 0.0 1.0 0.00 0.00 0.00 58 1011.5
20260504234754 60 129 1.0 1.0 0.00 0.00 0.00 56 1011.5
20260504234252 61 142 2.0 3.0 0.00 0.00 0.00 55 1011.4
20260504233748 62 114 0.0 0.0 0.00 0.00 0.00 55 1011.2
20260504233243 62 142 1.0 1.0 0.00 0.00 0.00 54 1011.2
20260504232740 63 105 1.0 1.0 0.00 0.00 0.00 52 1011.0
20260504232238 63 165 1.0 1.0 0.00 0.00 0.00 51 1011.1
20260504231735 65 356 1.0 2.0 0.00 0.00 0.00 49 1010.9
20260504231231 65 72 1.0 1.0 0.00 0.00 0.00 49 1010.7
20260504230727 66 112 0.0 1.0 0.00 0.00 0.00 49 1010.5
20260504230226 66 130 1.0 1.0 0.00 0.00 0.00 47 1010.5
20260504225724 67 96 2.0 2.0 0.00 0.00 0.00 43 1010.9
20260504225220 68 116 1.0 1.0 0.00 0.00 0.00 38 1010.4
20260504224717 68 101 1.0 2.0 0.00 0.00 0.00 38 1010.3
20260504224214 69 205 4.0 7.0 0.00 0.00 0.00 37 1010.6
20260504223711 69 95 1.0 1.0 0.00 0.00 0.00 36 1010.5
20260504223206 70 95 2.0 3.0 0.00 0.00 0.00 36 1010.5
20260504222703 70 40 2.0 2.0 0.00 0.00 0.00 36 1010.6
20260504222200 70 175 3.0 3.0 0.00 0.00 0.00 36 1010.4
20260504221657 70 344 4.0 7.0 0.00 0.00 0.00 35 1010.5
20260504221155 70 98 1.0 2.0 0.00 0.00 0.00 37 1010.5
20260504220651 70 136 5.0 7.0 0.00 0.00 0.00 35 1010.5
20260504220149 71 198 1.0 2.0 0.00 0.00 0.00 37 1010.6
20260504215645 71 102 1.0 1.0 0.00 0.00 0.00 35 1010.7
20260504215142 71 49 1.0 2.0 0.00 0.00 0.00 37 1010.9
20260504214638 69 191 2.0 3.0 0.00 0.00 0.00 36 1011.0
20260504214134 70 123 3.0 4.0 0.00 0.00 0.00 35 1010.9
20260504213631 70 316 3.0 3.0 0.00 0.00 0.00 37 1010.7
20260504213128 71 303 4.0 4.0 0.00 0.00 0.00 34 1011.0
20260504212624 70 108 2.0 3.0 0.00 0.00 0.00 36 1011.2
20260504212121 71 85 1.0 2.0 0.00 0.00 0.00 37 1011.0
20260504211619 71 177 2.0 2.0 0.00 0.00 0.00 37 1010.9
20260504211115 71 257 3.0 3.0 0.00 0.00 0.00 33 1011.1
20260504210613 71 110 3.0 8.0 0.00 0.00 0.00 34 1011.0
20260504210109 70 300 4.0 6.0 0.00 0.00 0.00 35 1011.0
20260504205607 70 157 4.0 6.0 0.00 0.00 0.00 32 1010.9
20260504205104 72 84 1.0 2.0 0.00 0.00 0.00 32 1010.6
20260504204602 73 133 1.0 1.0 0.00 0.00 0.00 33 1010.9
20260504204101 73 258 0.0 1.0 0.00 0.00 0.00 33 1011.1
20260504203559 73 159 2.0 3.0 0.00 0.00 0.00 34 1010.9
20260504203056 73 72 4.0 7.0 0.00 0.00 0.00 33 1010.9
20260504202551 72 288 5.0 8.0 0.00 0.00 0.00 32 1011.0
20260504202048 72 89 1.0 2.0 0.00 0.00 0.00 32 1011.0
20260504201545 73 41 2.0 3.0 0.00 0.00 0.00 34 1011.0
20260504201043 72 290 5.0 7.0 0.00 0.00 0.00 30 1011.0
20260504200539 71 142 1.0 1.0 0.00 0.00 0.00 36 1011.1
20260504200036 71 169 2.0 3.0 0.00 0.00 0.00 34 1011.3
20260504195532 71 167 2.0 2.0 0.00 0.00 0.00 35 1011.4
20260504195029 71 196 3.0 3.0 0.00 0.00 0.00 34 1011.1
20260504194526 71 126 2.0 2.0 0.00 0.00 0.00 35 1011.5
20260504194021 71 280 4.0 4.0 0.00 0.00 0.00 32 1011.4
20260504193518 72 91 3.0 3.0 0.00 0.00 0.00 31 1011.2
20260504193017 73 28 4.0 6.0 0.00 0.00 0.00 33 1011.4
20260504192515 71 109 2.0 3.0 0.00 0.00 0.00 33 1011.3
20260504192013 72 333 6.0 9.0 0.00 0.00 0.00 32 1011.6
20260504191510 71 289 3.0 7.0 0.00 0.00 0.00 35 1011.6
20260504191006 69 126 1.0 2.0 0.00 0.00 0.00 36 1011.6
20260504190502 70 54 3.0 6.0 0.00 0.00 0.00 32 1011.6
20260504185958 72 107 4.0 7.0 0.00 0.00 0.00 31 1011.7
20260504185455 69 196 2.0 2.0 0.00 0.00 0.00 34 1011.9
20260504184952 69 244 2.0 2.0 0.00 0.00 0.00 36 1011.7
20260504184447 70 176 2.0 3.0 0.00 0.00 0.00 34 1011.7
20260504183943 70 195 2.0 3.0 0.00 0.00 0.00 34 1012.0
20260504183441 70 22 3.0 6.0 0.00 0.00 0.00 36 1012.2
20260504182938 68 190 3.0 4.0 0.00 0.00 0.00 34 1012.0
20260504182435 68 223 5.0 6.0 0.00 0.00 0.00 35 1012.0
20260504181933 67 147 3.0 4.0 0.00 0.00 0.00 37 1012.1
20260504181429 70 52 3.0 4.0 0.00 0.00 0.00 33 1012.2
20260504180928 70 321 3.0 3.0 0.00 0.00 0.00 34 1012.1
20260504180427 67 340 3.0 4.0 0.00 0.00 0.00 36 1012.0
20260504175924 68 309 4.0 6.0 0.00 0.00 0.00 34 1012.0
20260504175421 69 333 5.0 7.0 0.00 0.00 0.00 34 1012.5
20260504174919 70 139 1.0 2.0 0.00 0.00 0.00 36 1012.4
20260504174416 68 105 2.0 3.0 0.00 0.00 0.00 38 1012.5
20260504173913 68 272 2.0 4.0 0.00 0.00 0.00 35 1012.3
20260504173409 67 337 3.0 3.0 0.00 0.00 0.00 35 1012.5
20260504172907 67 113 2.0 3.0 0.00 0.00 0.00 35 1012.8
20260504172403 67 322 6.0 11.0 0.00 0.00 0.00 35 1012.6
20260504171859 67 298 5.0 11.0 0.00 0.00 0.00 35 1012.8
20260504171357 69 115 3.0 4.0 0.00 0.00 0.00 34 1012.9
20260504170854 67 63 2.0 3.0 0.00 0.00 0.00 39 1012.6
20260504170350 65 185 3.0 3.0 0.00 0.00 0.00 36 1012.8
20260504160309 65 58 4.0 6.0 0.00 0.00 0.00 36 1013.4
20260504150734 62 271 6.0 10.0 0.00 0.00 0.00 39 1013.6
20260504150231 61 124 2.0 4.0 0.00 0.00 0.00 39 1013.9
20260504141200 57 283 2.0 3.0 0.00 0.00 0.00 44 1014.2
20260504140657 57 193 2.0 3.0 0.00 0.00 0.00 43 1014.5
20260504140152 57 282 3.0 3.0 0.00 0.00 0.00 43 1014.4
20260504130621 54 99 3.0 4.0 0.00 0.00 0.00 50 1014.8
20260504130118 53 315 2.0 2.0 0.00 0.00 0.00 49 1014.9
20260504110509 47 114 0.0 1.0 0.00 0.00 0.00 58 1014.9
20260504100431 45 98 1.0 1.0 0.00 0.00 0.00 60 1014.6
20260504081824 44 67 1.0 2.0 0.00 0.00 0.00 58 1014.3
20260504081320 45 110 0.0 0.0 0.00 0.00 0.00 59 1014.4
20260504080816 45 111 0.0 1.0 0.00 0.00 0.00 58 1014.3
20260504080314 45 109 1.0 1.0 0.00 0.00 0.00 57 1014.2
20260504070235 44 113 2.0 2.0 0.00 0.00 0.00 58 1014.2
20260504060155 44 58 1.0 1.0 0.00 0.00 0.00 58 1014.2
20260504050623 45 114 0.0 0.0 0.00 0.00 0.00 57 1014.0
20260504050121 45 87 1.0 1.0 0.00 0.00 0.00 55 1014.0
20260504045618 45 100 0.0 0.0 0.00 0.00 0.00 55 1013.9
20260504045112 46 99 1.0 1.0 0.00 0.00 0.00 54 1013.7
20260504044611 45 87 1.0 1.0 0.00 0.00 0.00 55 1014.0
20260504044107 45 99 1.0 1.0 0.00 0.00 0.00 56 1014.0
20260504043604 45 98 0.0 0.0 0.00 0.00 0.00 56 1014.0
20260504043101 45 95 0.0 1.0 0.00 0.00 0.00 56 1013.9
20260504042558 45 99 0.0 1.0 0.00 0.00 0.00 55 1013.9
20260504042055 45 98 0.0 1.0 0.00 0.00 0.00 55 1013.7
20260504041550 45 84 1.0 1.0 0.00 0.00 0.00 55 1013.9
20260504041042 46 100 0.0 1.0 0.00 0.00 0.00 54 1013.9
20260504040539 46 101 0.0 1.0 0.00 0.00 0.00 54 1013.8
20260504040036 46 99 0.0 1.0 0.00 0.00 0.00 54 1013.8
20260504035532 46 104 1.0 1.0 0.00 0.00 0.00 53 1013.9
20260504035029 46 89 1.0 1.0 0.00 0.00 0.00 53 1013.9
20260504034527 45 101 1.0 1.0 0.00 0.00 0.00 56 1013.8
20260504034023 46 87 1.0 1.0 0.00 0.00 0.00 54 1013.9
20260504033521 46 85 0.0 1.0 0.00 0.00 0.00 54 1013.9
20260504033019 46 99 0.0 1.0 0.00 0.00 0.00 54 1013.8
20260504032515 46 97 0.0 1.0 0.00 0.00 0.00 53 1014.0
20260504032012 46 79 1.0 1.0 0.00 0.00 0.00 54 1013.8
20260504031509 46 89 1.0 1.0 0.00 0.00 0.00 55 1013.7
20260504031005 46 93 0.0 1.0 0.00 0.00 0.00 54 1013.8
20260504030503 46 93 0.0 1.0 0.00 0.00 0.00 53 1013.8
20260504025958 46 91 0.0 1.0 0.00 0.00 0.00 53 1013.7
20260504025456 46 90 1.0 1.0 0.00 0.00 0.00 54 1013.7
20260504024952 46 92 0.0 1.0 0.00 0.00 0.00 54 1013.8
20260504024449 45 98 0.0 0.0 0.00 0.00 0.00 54 1013.9
20260504023946 46 104 0.0 0.0 0.00 0.00 0.00 54 1013.6
20260504023443 45 113 0.0 1.0 0.00 0.00 0.00 54 1013.9
20260504022938 45 104 0.0 0.0 0.00 0.00 0.00 53 1013.7
20260504022435 45 98 0.0 0.0 0.00 0.00 0.00 54 1013.8
20260504021932 45 111 0.0 0.0 0.00 0.00 0.00 56 1013.8
20260504021429 45 94 0.0 0.0 0.00 0.00 0.00 54 1013.8
20260504020926 46 113 0.0 0.0 0.00 0.00 0.00 56 1013.7
20260504020423 46 110 0.0 0.0 0.00 0.00 0.00 56 1013.8
20260504015920 46 110 0.0 0.0 0.00 0.00 0.00 55 1013.5
20260504015415 46 112 0.0 0.0 0.00 0.00 0.00 53 1013.8
20260504014911 47 112 0.0 0.0 0.00 0.00 0.00 53 1013.6
20260504014407 46 106 1.0 1.0 0.00 0.00 0.00 51 1013.6
20260504013904 46 88 0.0 1.0 0.00 0.00 0.00 51 1013.8
20260504013402 46 99 0.0 1.0 0.00 0.00 0.00 51 1013.5
20260504012858 46 92 0.0 1.0 0.00 0.00 0.00 51 1013.6
20260504012356 46 116 0.0 0.0 0.00 0.00 0.00 51 1013.6
20260504011848 46 113 0.0 0.0 0.00 0.00 0.00 53 1013.7